ヴォルフ彗星

14P/Wolf (2017)

English version
Home page
Updated on October 9, 2017

---------------------------------------------------------------------

・ プロフィール

・ 写真集

・ 軌道要素

Epoch 2017 Nov. 23.0 TT = JDT 2458080.5
T 2017 Dec. 1.99905 TT                                  MPCW
q   2.7430380            (2000.0)            P               Q
n   0.11212495     Peri.  159.02392     +0.98413332     +0.02097364
a   4.2592638      Node   202.11610     -0.01300916     +0.99884569
e   0.3559831      Incl.   27.90314     +0.17695304     -0.04321325
P   8.79
From 207 observations 1950 June 18-2016 May 13, mean residual 0".7.
     Nongravitational parameters A1 = -0.05, A2 = +0.0025.

・ 光度変化

        m1 = 15.0 + 5 logΔ + 6.0 log r

---------------------------------------------------------------------

軌道要素はM.P.E.C. 2016-K18に掲載されたものです。
光度グラフはComet for Windowsで作成したものです。

---------------------------------------------------------------------

Copyright(C) Seiichi Yoshida (comet@aerith.net). All rights reserved.